Weather History for KWLD - November, 2012

Change the Weather History Date:

Sunday, November 11, 2012

  Actual Average Record
Temperature  
Mean Temperature 48 °F -  
Max Temperature 69 °F 56 °F 77 °F (1999)
Min Temperature 28 °F 38 °F 23 °F (1997)
Degree Days  
Heating Degree Days 16    
Moisture  
Dew Point 42 °F    
Average Humidity 86    
Maximum Humidity 100    
Minimum Humidity 59    
Precipitation  
Precipitation 1.08 in - - ()
Sea Level Pressure  
Sea Level Pressure 29.90 in    
Wind  
Wind Speed 15 mph (NW)    
Max Wind Speed 25 mph    
Max Gust Speed 34 mph    
Visibility 8 miles    
Events Rain , Thunderstorm    
Averages and records for this station are not official NWS values.
T = Trace of Precipitation, MM = Missing Value Source: NWS Daily Summary

Daily Weather History Graph

Daily Weather History Graph

Search for Another Location

Airport or City:

Trip Planner

Search our weather history database for the weather conditions in past years. The results will help you decide how hot, cold, wet, or windy it might be!

Date:

Astronomy

Nov. 11, 2012 Rise Set
Actual Time 7:03 AM CST 5:20 PM CST
Civil Twilight 6:35 AM CST 5:48 PM CST
Nautical Twilight 6:04 AM CST 6:19 PM CST
Astronomical Twilight 5:33 AM CST 6:50 PM CST
Moon 4:21 AM CST (11/11) 3:42 PM CST (11/11)
Length of Visible Light 11h 12m
Length of Day
10h 17m
Waning Crescent, 7% of the Moon is Illuminated
Nov 11
Waning Crescent
Nov 13
New
Nov 20
First Quarter
Nov 28
Full
Dec 6
Last Quarter

Hourly Weather History & Observations

Time (CST) Temp. Windchill Dew Point Humidity Pressure Visibility Wind Dir Wind Speed Gust Speed Precip Events Conditions
12:10 AM 69.8 °F - 57.2 °F 64% 29.69 in 10.0 mi South 23.0 mph 29.9 mph N/A   Mostly Cloudy
12:42 AM 66.2 °F - 55.4 °F 68% 29.75 in 10.0 mi West 25.3 mph 34.5 mph N/A Thunderstorm Overcast
12:54 AM 60.1 °F - 57.0 °F 90% 29.71 in 3.0 mi WSW 11.5 mph 23.0 mph 0.12 in Rain , Thunderstorm Light Thunderstorms and Rain
1:13 AM 59.0 °F - 57.2 °F 94% 29.71 in 5.0 mi WSW 6.9 mph - 0.02 in Rain Light Rain
1:54 AM 60.1 °F - 57.9 °F 93% 29.70 in 10.0 mi WNW 18.4 mph 24.2 mph 0.04 in Rain Light Rain
2:13 AM 60.8 °F - 59.0 °F 94% 29.69 in 9.0 mi West 15.0 mph 19.6 mph 0.02 in Rain Light Rain
2:26 AM 60.8 °F - 57.2 °F 88% 29.71 in 4.0 mi WSW 16.1 mph - 0.12 in Rain , Thunderstorm Heavy Thunderstorms and Rain
2:32 AM 59.0 °F - 57.2 °F 94% 29.70 in 1.8 mi WSW 12.7 mph - 0.23 in Rain , Thunderstorm Heavy Thunderstorms and Rain
2:37 AM 59.0 °F - 57.2 °F 94% 29.70 in 2.0 mi SW 10.4 mph - 0.26 in Rain , Thunderstorm Heavy Thunderstorms and Rain
2:45 AM 59.0 °F - 57.2 °F 94% 29.69 in 5.0 mi WSW 9.2 mph - 0.27 in Rain , Thunderstorm Light Rain
2:48 AM 59.0 °F - 57.2 °F 94% 29.69 in 5.0 mi WSW 8.1 mph - 0.28 in Rain Rain
2:52 AM 59.0 °F - 57.2 °F 94% 29.70 in 5.0 mi West 12.7 mph 20.7 mph 0.28 in Rain , Thunderstorm Rain
2:54 AM 59.0 °F - 57.9 °F 96% 29.67 in 6.0 mi West 15.0 mph 20.7 mph 0.29 in Rain , Thunderstorm Light Rain
3:12 AM 53.6 °F - 53.6 °F 100% 29.71 in 3.0 mi NW 23.0 mph 28.8 mph 0.09 in Rain , Thunderstorm Rain
3:24 AM 51.8 °F - 51.8 °F 100% 29.75 in 2.5 mi NW 19.6 mph 27.6 mph 0.23 in Rain , Thunderstorm Heavy Rain
3:37 AM 51.8 °F - 51.8 °F 100% 29.76 in 3.0 mi NNW 15.0 mph 20.7 mph 0.35 in Rain Heavy Rain
3:49 AM 50.0 °F - 50.0 °F 100% 29.78 in 4.0 mi NNW 17.3 mph - 0.41 in Rain Heavy Rain
3:54 AM 50.0 °F - 50.0 °F 100% 29.75 in 4.0 mi NNW 15.0 mph - 0.44 in Rain Heavy Rain
4:54 AM 48.0 °F - 46.9 °F 96% 29.74 in 10.0 mi NNW 13.8 mph - 0.06 in Rain Light Rain
5:54 AM 44.1 °F 36.5 °F 43.0 °F 96% 29.77 in 10.0 mi North 17.3 mph 23.0 mph 0.11 in Rain Light Rain
6:20 AM 44.6 °F 37.8 °F 42.8 °F 93% 29.81 in 10.0 mi NNW 15.0 mph - 0.00 in   Overcast
6:54 AM 42.1 °F 33.9 °F 39.9 °F 92% 29.84 in 10.0 mi North 17.3 mph - 0.01 in Rain Light Rain
7:54 AM 39.0 °F 30.3 °F 37.0 °F 93% 29.87 in 10.0 mi NNW 16.1 mph - 0.01 in   Overcast
8:54 AM 37.0 °F 27.4 °F 34.0 °F 89% 29.90 in 10.0 mi NNW 17.3 mph 25.3 mph 0.00 in   Overcast
9:37 AM 37.4 °F 29.3 °F 33.8 °F 87% 29.96 in 10.0 mi NNW 12.7 mph 21.9 mph N/A   Overcast
9:54 AM 37.0 °F 27.4 °F 33.1 °F 86% 29.97 in 10.0 mi NNW 17.3 mph - N/A   Overcast
10:54 AM 37.0 °F 27.0 °F 32.0 °F 82% 29.99 in 10.0 mi NNW 18.4 mph - N/A   Overcast
12:54 PM 37.0 °F 27.4 °F 28.9 °F 73% 30.02 in 10.0 mi NNW 17.3 mph - N/A   Overcast
1:29 PM 35.6 °F 25.5 °F 28.4 °F 75% 30.03 in 10.0 mi NNW 17.3 mph - N/A   Overcast
1:54 PM 36.0 °F 28.0 °F 27.0 °F 70% 30.04 in 10.0 mi NNW 11.5 mph - N/A   Overcast
2:54 PM 36.0 °F 26.7 °F 26.1 °F 67% 30.07 in 10.0 mi NNW 15.0 mph - N/A   Partly Cloudy
3:54 PM 37.9 °F 30.5 °F 26.1 °F 62% 30.10 in 10.0 mi NW 11.5 mph - N/A   Clear
4:54 PM 37.0 °F 28.9 °F 24.1 °F 59% 30.14 in 10.0 mi NNW 12.7 mph - N/A   Clear
5:54 PM 33.1 °F 28.7 °F 27.0 °F 78% 30.18 in 10.0 mi NW 4.6 mph - N/A   Clear
6:54 PM 32.0 °F 25.6 °F 26.1 °F 79% 30.22 in 10.0 mi NW 6.9 mph - N/A   Clear
7:54 PM 30.9 °F 25.2 °F 24.1 °F 76% 30.26 in 10.0 mi NW 5.8 mph - N/A   Clear
8:54 PM 30.0 °F 24.1 °F 23.0 °F 75% 30.28 in 10.0 mi NW 5.8 mph - N/A   Clear
9:54 PM 30.9 °F 27.5 °F 24.1 °F 76% 30.30 in 10.0 mi WNW 3.5 mph - N/A   Clear
10:54 PM 28.9 °F 23.9 °F 24.1 °F 82% 30.32 in 10.0 mi WNW 4.6 mph - N/A   Clear
11:54 PM 28.9 °F 25.2 °F 24.1 °F 82% 30.33 in 10.0 mi WNW 3.5 mph - N/A   Clear